Location: Erlenbrunn
(49.1717°N, 7.6142°E)
Time: 11:46:58
(UTC+00:00)

Cosmos 1633 Rocket - Pass Details

Date: 25 November 2020
Orbit: 607 x 624 km, 82.5° (Epoch: 25 January)

Event Time Altitude Azimuth Distance (km) Brightness Sun altitude
Rises 18:01:43 0° 344° (NNW) 2,905 6.6 -22.9°
Reaches altitude 10° 18:04:01 10° 339° (NNW) 1,992 5.8 -23.3°
Maximum altitude 18:08:12 44° 267° (W) 853 4.2 -24.0°
Drops below altitude 10° 18:12:20 10° 195° (SSW) 1,966 5.8 -24.6°
Sets 18:14:37 0° 189° (S) 2,863 6.6 -25.0°
